Wind_Speed
64 68 63 51 55 54 53 50 53 49 44 46 47 46 37 33 38 38 42 44 40 41 40 39 35 37 33 28 25 22 20 20 17 21 24 27 32 35 38 38 39 41 46 46
73 68 46 56 54 56 54 58 56 50 47 44 43 40 41 39 37 34 43 46 39 36 38 35 34 35 30 24 24 21 19 21 22 27 28 30 32 33 35 35 37 39 44 41
75 56 62 60 62 58 55 56 49 45 45 42 43 46 43 37 40 45 42 39 43 37 36 30 32 34 26 23 22 19 19 22 26 29 32 31 32 34 34 35 37 38 38 38
73 62 67 68 64 60 62 51 51 46 48 48 40 49 41 34 37 41 35 34 36 32 26 26 28 28 23 22 21 19 21 25 27 32 30 32 32 32 34 36 35 31 31 33
65 67 70 70 57 65 55 50 47 46 49 50 49 46 26 30 38 36 34 34 36 28 25 26 33 21 19 21 18 19 22 26 30 28 27 31 28 31 33 31 30 29 30 26
65 66 67 64 67 67 61 53 51 47 44 47 41 42 30 31 28 28 34 34 28 26 25 30 19 17 18 18 16 20 23 27 28 26 27 24 26 30 26 26 29 29 26 21
61 64 64 66 66 67 65 60 55 52 55 55 33 38 37 26 28 37 32 25 20 25 22 26 16 16 17 17 18 20 23 25 25 24 20 22 26 25 25 26 24 23 17 13
41 63 61 64 68 64 67 65 64 62 56 51 43 47 37 27 28 23 21 19 19 22 24 13 17 16 19 17 20 20 22 21 24 16 20 22 25 21 22 20 19 16 13 10
37 37 52 61 67 66 62 64 55 56 53 44 36 31 36 28 21 21 22 20 20 18 16 18 20 19 17 17 17 18 18 21 16 17 20 22 22 19 20 19 16 13 11 7
34 36 41 64 63 70 62 50 59 55 52 42 39 21 12 28 30 31 18 17 25 17 12 19 17 16 16 15 15 16 16 19 14 17 19 22 18 19 16 14 14 12 8 5
46 43 30 42 61 65 56 60 53 52 51 50 44 20 23 28 28 19 17 15 15 10 17 20 19 16 14 13 14 13 17 15 13 17 18 19 17 17 16 16 11 11 9 4
34 32 34 38 44 43 41 53 55 57 53 50 37 27 32 33 28 20 21 17 18 13 15 20 18 15 11 11 13 12 16 12 13 15 17 18 16 17 14 12 9 9 13 4
37 25 32 30 52 54 55 51 57 57 45 41 40 29 31 29 31 24 27 21 19 14 13 17 15 12 10 12 11 13 12 10 13 13 16 16 18 13 10 10 10 10 12 6
32 32 30 31 45 50 47 49 47 50 53 43 37 25 32 22 19 20 24 27 17 16 15 17 12 9 9 10 10 10 10 9 11 12 13 13 10 8 8 9 9 11 9 6
22 30 39 51 51 41 47 55 47 48 45 48 30 30 23 23 23 35 31 21 19 18 17 13 10 8 9 7 8 8 8 8 8 9 11 9 10 9 8 7 9 12 11 8
17 18 39 49 39 47 49 56 51 48 36 42 31 37 34 29 37 28 27 23 22 21 18 15 12 10 8 7 7 7 6 6 6 6 6 6 6 7 7 9 8 10 10 8
9 21 28 42 30 24 50 57 49 42 36 42 31 31 35 35 25 26 31 28 25 23 18 16 15 12 8 7 8 5 5 5 3 3 4 4 6 8 10 11 10 10 8 3
10 17 28 30 24 24 44 43 48 43 31 45 32 38 32 45 35 27 32 30 27 21 19 18 15 11 8 9 7 4 5 4 3 3 3 3 5 8 9 12 13 10 8 3
10 10 19 26 27 17 46 49 45 46 46 50 45 27 34 35 35 33 33 35 32 29 23 20 17 11 9 9 8 4 5 5 3 3 1 2 5 7 9 11 15 12 10 6
12 11 13 41 22 17 25 52 38 46 54 55 50 46 53 47 40 40 37 35 31 29 27 24 18 12 10 11 10 5 5 6 4 2 0 2 5 8 9 11 15 14 10 7
10 13 16 35 28 18 29 50 41 45 47 53 50 51 52 55 52 47 41 38 33 27 28 25 20 14 11 11 11 7 5 7 6 4 2 0 3 6 8 10 12 16 12 10
10 14 12 25 39 16 23 54 54 46 29 46 51 52 54 48 41 36 33 38 34 30 28 22 17 15 13 12 13 9 5 6 7 6 3 2 3 5 8 10 12 15 17 13
13 13 14 17 30 6 17 40 40 50 51 32 41 42 42 40 38 39 35 38 34 33 28 22 19 18 15 13 14 11 7 5 6 7 5 4 4 5 8 11 11 12 13 16
14 15 17 21 23 30 11 20 32 29 45 43 29 38 37 40 43 44 37 39 41 35 31 25 21 18 14 13 13 14 10 6 5 6 7 6 7 7 7 10 12 13 14 15
12 18 21 21 24 28 32 18 29 32 30 35 43 36 32 37 44 45 38 40 40 37 33 26 23 19 13 11 12 13 13 10 6 6 7 9 9 9 8 9 12 13 14 16
12 20 19 17 20 18 27 42 28 32 28 33 38 36 33 38 39 40 40 43 40 38 35 28 26 22 16 11 12 12 13 12 9 6 8 8 9 9 10 11 8 7 7 8
Wind_Direction
241 240 241 249 252 257 259 260 259 260 265 270 273 276 280 268 259 269 264 285 279 278 281 277 279 287 294 280 281 290 294 305 305 302 300 298 296 298 300 298 296 299 299 302
241 242 245 244 245 247 248 251 253 258 259 268 270 271 279 278 279 272 271 279 284 277 271 283 285 288 281 270 277 288 299 303 288 301 300 298 302 300 299 296 299 298 297 300
241 243 242 241 240 242 243 246 251 256 256 263 264 265 263 277 277 271 273 287 287 279 274 280 276 285 267 265 277 285 295 293 289 298 298 301 300 303 301 302 303 304 305 307
240 239 239 237 238 240 243 246 250 251 255 256 256 265 269 280 280 279 285 284 280 284 280 267 268 276 254 266 278 283 289 292 297 299 301 299 301 301 304 303 306 304 308 308
240 236 235 237 240 237 239 237 244 248 253 257 254 261 280 274 275 284 283 279 276 289 260 255 268 254 251 267 275 277 288 295 301 303 300 300 300 302 303 308 310 309 315 312
236 234 232 235 233 236 234 234 234 237 244 253 253 262 270 270 287 274 268 271 293 264 257 244 259 240 255 267 265 279 290 301 303 304 301 298 299 302 306 305 311 306 317 316
237 231 231 228 229 229 230 228 229 231 234 250 257 259 274 277 292 277 284 287 261 253 243 253 226 233 258 256 265 282 298 303 306 302 300 299 301 303 309 315 309 313 317 320
238 232 224 228 228 228 226 228 227 234 243 253 255 257 273 281 283 286 285 263 251 243 246 236 220 242 260 257 266 290 300 305 303 300 299 298 305 304 312 308 315 319 318 329
228 236 227 220 224 220 222 217 230 232 238 246 243 265 282 288 289 300 266 257 248 250 232 221 222 251 251 259 275 296 297 303 295 302 297 301 308 305 304 304 316 317 322 341
226 224 217 217 216 220 209 216 211 222 223 226 241 260 289 278 287 280 244 234 240 234 223 218 226 247 249 261 289 294 297 297 296 302 299 309 302 305 302 308 319 319 322 319
225 230 214 217 205 213 203 208 212 216 224 224 230 202 249 239 252 266 208 218 240 219 221 215 231 244 249 276 294 290 293 292 300 298 306 308 304 301 295 302 322 326 317 300
223 218 214 217 194 201 200 212 203 205 215 220 225 231 244 251 270 245 221 220 232 224 231 216 225 233 256 290 295 284 289 296 297 298 305 307 302 299 295 307 314 311 307 288
222 207 213 214 194 187 201 205 200 197 206 218 210 207 245 251 246 242 219 226 227 230 227 214 212 236 272 296 291 278 292 293 294 298 306 313 313 296 290 317 313 324 335 288
221 209 215 207 192 193 198 197 196 194 208 198 210 212 237 229 228 201 209 224 231 214 206 203 216 246 284 290 273 276 292 289 295 302 308 320 321 315 313 324 334 332 330 314
221 222 220 207 188 187 199 183 190 191 208 194 187 208 238 234 204 203 216 208 206 205 214 204 220 252 278 274 256 277 292 285 298 309 312 309 313 326 333 340 336 333 331 315
240 224 222 215 186 197 194 184 177 195 190 185 173 214 220 208 204 199 216 211 203 203 208 212 229 247 259 246 242 278 280 284 299 319 332 333 341 7 1 -0 349 343 338 331
225 211 225 218 171 155 166 176 176 173 190 188 182 189 219 196 159 193 196 203 199 207 209 217 234 244 247 234 227 271 265 266 286 325 325 326 343 16 10 6 359 356 343 336
220 222 232 215 194 143 167 172 171 181 187 178 200 195 188 212 185 181 188 193 200 209 213 224 240 246 244 229 221 268 248 239 248 291 316 344 3 29 16 11 8 9 360 124
208 212 215 204 200 103 160 173 170 177 189 187 205 185 195 189 195 202 200 204 202 196 211 225 238 243 242 224 211 249 237 217 212 262 341 15 18 28 31 20 18 27 33 134
251 213 216 208 215 180 166 183 171 176 182 192 195 197 187 193 200 203 208 215 210 212 205 224 233 240 239 216 201 225 225 204 186 208 263 23 22 21 31 33 28 38 45 136
228 192 200 213 203 161 186 179 178 175 186 189 193 198 196 196 203 204 204 213 207 210 221 222 228 239 236 221 199 207 223 203 181 182 186 29 29 32 47 49 41 46 64 106
163 143 176 217 217 243 159 186 192 186 188 198 198 202 206 207 206 217 211 215 212 210 219 228 240 242 235 218 197 202 218 208 190 190 182 129 73 59 63 66 59 62 70 75
190 187 184 198 214 216 251 164 192 203 210 211 206 207 200 205 205 212 219 217 215 214 217 215 228 236 233 216 202 206 215 218 197 199 192 161 127 100 80 78 79 79 79 85
196 197 206 206 217 208 157 210 178 180 194 206 199 198 205 208 209 214 214 213 211 210 210 217 223 226 223 212 203 209 212 209 204 200 189 172 152 135 106 89 91 93 92 91
209 217 222 223 223 222 227 200 196 202 192 196 203 202 205 211 211 215 211 205 209 209 213 216 217 215 211 207 198 206 206 206 201 202 197 178 170 158 141 120 109 103 98 97
236 215 217 219 227 225 232 233 242 199 199 193 197 200 204 205 208 212 203 201 208 209 209 214 210 207 202 200 195 204 207 206 209 204 206 197 187 179 166 155 144 126 107 93
Height
5717 5717 5728 5745 5750 5756 5760 5761 5761 5767 5775 5775 5773 5775 5781 5782 5783 5784 5783 5784 5783 5782 5784 5783 5785 5783 5785 5782 5781 5779 5775 5772 5771 5770 5769 5767 5765 5762 5759 5754 5750 5747 5740 5735
5698 5706 5734 5736 5741 5742 5748 5747 5750 5760 5767 5770 5766 5766 5770 5771 5774 5777 5776 5775 5777 5775 5773 5777 5777 5777 5776 5776 5776 5773 5770 5769 5768 5766 5764 5762 5759 5757 5753 5747 5744 5741 5734 5729
5677 5712 5713 5722 5723 5729 5735 5737 5748 5753 5759 5760 5756 5754 5759 5767 5767 5766 5768 5770 5767 5766 5767 5770 5768 5769 5769 5771 5770 5768 5767 5766 5764 5762 5759 5756 5753 5750 5746 5741 5736 5732 5726 5721
5663 5696 5694 5700 5710 5722 5722 5736 5739 5745 5747 5745 5751 5743 5753 5761 5759 5758 5761 5760 5758 5759 5761 5761 5760 5763 5763 5765 5765 5764 5763 5762 5760 5757 5754 5751 5748 5744 5740 5735 5731 5727 5723 5717
5667 5674 5673 5684 5706 5706 5718 5725 5731 5734 5734 5735 5738 5739 5751 5753 5749 5751 5752 5751 5751 5753 5752 5754 5752 5756 5759 5760 5760 5760 5759 5757 5755 5752 5749 5746 5743 5739 5734 5729 5725 5720 5718 5712
5648 5650 5656 5679 5682 5691 5708 5714 5718 5723 5725 5721 5737 5736 5741 5746 5747 5745 5742 5743 5747 5746 5746 5744 5749 5752 5754 5755 5756 5756 5755 5753 5750 5747 5744 5742 5739 5734 5731 5727 5721 5717 5713 5708
5623 5628 5646 5653 5665 5677 5688 5699 5704 5711 5711 5713 5735 5731 5732 5742 5742 5735 5735 5738 5738 5739 5742 5738 5745 5748 5750 5751 5752 5752 5750 5748 5745 5743 5740 5737 5735 5730 5727 5722 5719 5715 5710 5706
5600 5612 5627 5646 5651 5665 5673 5686 5691 5697 5706 5716 5725 5719 5729 5732 5733 5729 5730 5732 5732 5733 5734 5738 5742 5745 5746 5747 5748 5747 5746 5744 5742 5739 5736 5734 5731 5727 5724 5720 5716 5712 5708 5705
5587 5596 5615 5627 5637 5649 5663 5667 5692 5697 5704 5708 5717 5719 5718 5724 5725 5724 5725 5728 5728 5729 5732 5735 5739 5741 5742 5744 5744 5743 5742 5741 5738 5736 5734 5730 5727 5724 5721 5718 5715 5711 5707 5705
5582 5585 5593 5610 5623 5633 5644 5665 5673 5681 5690 5699 5710 5717 5720 5719 5720 5722 5721 5724 5725 5727 5730 5733 5736 5737 5739 5740 5740 5739 5738 5737 5735 5733 5730 5727 5724 5721 5719 5716 5714 5709 5707 5705
5572 5574 5591 5596 5603 5623 5634 5646 5658 5677 5684 5691 5703 5712 5715 5715 5715 5717 5719 5721 5723 5725 5726 5730 5732 5734 5736 5736 5737 5736 5736 5734 5732 5731 5727 5724 5721 5719 5717 5715 5712 5708 5706 5704
5564 5571 5578 5585 5597 5616 5628 5639 5649 5661 5674 5685 5699 5708 5708 5709 5713 5715 5718 5718 5719 5722 5724 5726 5729 5732 5733 5733 5733 5734 5733 5731 5730 5728 5724 5722 5720 5717 5715 5713 5710 5707 5705 5704
5561 5567 5572 5580 5590 5596 5609 5625 5640 5655 5673 5679 5691 5700 5702 5707 5709 5711 5715 5715 5716 5720 5721 5724 5727 5729 5730 5730 5731 5732 5730 5729 5728 5725 5722 5720 5717 5714 5713 5711 5708 5707 5705 5703
5557 5562 5567 5575 5586 5592 5601 5617 5633 5649 5660 5673 5684 5698 5695 5701 5704 5710 5708 5711 5715 5717 5720 5722 5724 5726 5727 5728 5729 5729 5728 5727 5726 5723 5721 5719 5717 5714 5712 5709 5707 5706 5704 5702
5555 5559 5560 5559 5572 5577 5591 5601 5624 5639 5654 5666 5681 5693 5691 5697 5700 5700 5703 5708 5712 5714 5718 5719 5721 5724 5725 5726 5727 5727 5726 5726 5723 5722 5720 5718 5717 5715 5712 5709 5707 5705 5703 5700
5550 5553 5552 5556 5568 5574 5581 5597 5610 5638 5652 5667 5676 5683 5684 5687 5693 5697 5701 5705 5708 5711 5714 5717 5719 5722 5723 5724 5725 5725 5725 5724 5722 5721 5720 5718 5717 5715 5712 5710 5707 5704 5703 5700
5550 5551 5552 5556 5564 5567 5579 5599 5611 5630 5650 5665 5671 5677 5676 5682 5682 5689 5696 5701 5706 5709 5712 5715 5717 5719 5721 5722 5723 5723 5724 5723 5722 5721 5721 5719 5717 5715 5713 5710 5707 5705 5703 5701
5550 5549 5549 5557 5564 5571 5591 5609 5620 5631 5645 5659 5663 5663 5666 5676 5678 5685 5689 5696 5701 5705 5709 5712 5715 5718 5719 5721 5722 5722 5723 5723 5722 5722 5721 5720 5718 5716 5715 5712 5708 5705 5703 5702
5550 5553 5555 5561 5562 5566 5586 5599 5603 5619 5630 5636 5648 5657 5662 5665 5671 5678 5684 5688 5696 5699 5705 5710 5712 5716 5718 5719 5721 5722 5722 5723 5722 5722 5721 5720 5719 5717 5716 5713 5709 5706 5704 5704
5552 5554 5557 5561 5567 5572 5578 5595 5597 5607 5617 5626 5631 5638 5647 5658 5665 5673 5679 5686 5693 5699 5702 5706 5710 5713 5716 5717 5719 5721 5722 5722 5722 5723 5722 5721 5720 5719 5717 5714 5712 5709 5707 5707
5553 5556 5558 5559 5567 5574 5584 5591 5598 5608 5615 5617 5623 5631 5642 5651 5656 5666 5676 5681 5691 5698 5701 5704 5708 5711 5715 5717 5719 5721 5721 5722 5722 5723 5723 5722 5721 5721 5719 5717 5715 5712 5710 5710
5554 5557 5563 5565 5566 5571 5574 5589 5597 5601 5606 5615 5621 5632 5644 5652 5660 5666 5674 5678 5687 5695 5698 5703 5708 5711 5713 5716 5718 5721 5722 5722 5722 5723 5724 5724 5723 5723 5722 5720 5719 5718 5716 5715
5559 5561 5561 5567 5569 5577 5576 5585 5593 5600 5610 5615 5625 5634 5642 5647 5652 5661 5670 5678 5685 5692 5698 5701 5706 5709 5712 5714 5717 5720 5722 5723 5723 5724 5725 5725 5725 5725 5725 5724 5723 5723 5722 5722
5557 5559 5563 5567 5568 5576 5577 5579 5586 5593 5607 5613 5621 5629 5636 5643 5648 5654 5663 5672 5680 5688 5695 5701 5704 5708 5710 5712 5715 5718 5721 5723 5723 5724 5725 5726 5727 5727 5728 5728 5727 5727 5726 5727
5561 5562 5563 5564 5566 5571 5574 5576 5584 5592 5599 5609 5618 5625 5630 5636 5642 5649 5660 5669 5677 5685 5692 5698 5703 5706 5708 5710 5713 5717 5720 5722 5723 5724 5725 5726 5728 5729 5730 5730 5731 5731 5732 5732
5564 5563 5564 5566 5567 5570 5573 5575 5580 5588 5596 5603 5612 5620 5625 5630 5637 5645 5655 5665 5673 5681 5688 5695 5699 5703 5706 5709 5712 5715 5718 5720 5723 5724 5725 5727 5728 5730 5731 5732 5733 5734 5735 5735